Location: Unspecified
(45.1330°N, 0.0000°E)
Time: 14:20:42
(UTC+00:00)

Cosmos 2056 Rocket - Visible Passes

Search period start: 04 April 2026 00:00
Search period end: 14 April 2026 00:00
Orbit: 737 x 796 km, 74.0° (Epoch: 29 March)

Date Brightness Start Highest point End Pass type
(mag) Time Alt. Az. Time Alt. Az. Time Alt. Az.
4 Apr 6.1 01:02:08 13° ENE 01:02:08 13° ENE 01:03:27 10° ENE visible
4 Apr 3.6 02:42:22 69° NNW 02:42:22 69° NNW 02:47:15 10° NNE visible
4 Apr 5.5 04:22:36 11° WNW 04:24:52 14° NW 04:27:33 10° NNW visible
5 Apr 4.3 02:05:37 50° NE 02:05:37 50° NE 02:09:44 10° NNE visible
5 Apr 5.0 03:45:51 19° WNW 03:46:57 21° NW 03:50:57 10° N visible
6 Apr 5.1 01:28:50 30° ENE 01:28:50 30° ENE 01:32:01 10° NE visible
6 Apr 4.5 03:09:04 31° WNW 03:09:09 31° WNW 03:13:57 10° N visible
7 Apr 5.8 00:52:02 18° ENE 00:52:02 18° ENE 00:54:01 10° NE visible
7 Apr 4.2 02:32:15 46° NW 02:32:15 46° NW 02:36:44 10° NNE visible
8 Apr 6.3 00:15:12 10° ENE 00:15:12 10° ENE 00:15:22 10° ENE visible
8 Apr 4.3 01:55:25 49° N 01:55:25 49° N 01:59:21 10° NNE visible
8 Apr 5.5 03:35:39 13° WNW 03:36:54 14° NW 03:39:48 10° NNW visible
9 Apr 4.9 01:18:34 36° NE 01:18:34 36° NE 01:21:49 10° NNE visible
9 Apr 5.1 02:58:47 22° WNW 02:58:59 22° NW 03:03:08 10° N visible
10 Apr 5.5 00:41:41 24° NE 00:41:41 24° NE 00:44:04 10° NE visible
10 Apr 4.7 02:21:54 32° NW 02:21:54 32° NW 02:26:06 10° N visible
11 Apr 6.0 00:04:47 15° ENE 00:04:47 15° ENE 00:06:02 10° NE visible
11 Apr 4.6 01:45:00 41° NNW 01:45:00 41° NNW 01:48:51 10° NNE visible
12 Apr 4.8 01:08:04 40° NNE 01:08:04 40° NNE 01:11:28 10° NNE visible
12 Apr 5.6 02:48:17 15° WNW 02:48:56 15° NW 02:52:02 10° NNW visible
13 Apr 5.2 00:31:07 30° NE 00:31:07 30° NE 00:33:54 10° NNE visible
13 Apr 5.2 02:11:20 23° NW 02:11:20 23° NW 02:15:17 10° N visible
13 Apr 5.6 23:54:09 21° NE 23:54:09 21° NE 23:56:07 10° NE visible
